Location: St Paul
(33.9360°N, 83.4200°W)
Time: 11:15:32
(UTC-04:00)

Cosmos 2341 Rocket - Pass Details

Date: 06 October 2017
Orbit: 969 x 1004 km, 82.9° (Epoch: 22 October)

Event Time Altitude Azimuth Distance (km) Brightness Sun altitude
Rises 20:15:52 0° 190° (S) 3,645 7.1 -14.3°
Reaches altitude 10° 20:18:22 10° 193° (SSW) 2,703 6.4 -14.8°
Maximum altitude 20:24:32 72° 277° (W) 1,023 4.3 -16.1°
Drops below altitude 10° 20:30:47 10° 1° (N) 2,733 6.4 -17.4°
Sets 20:33:20 0° 4° (N) 3,689 7.1 -17.9°
